Retour au catalogue

STARLINK-32185

ActifCommunicationsVLEO
NORAD 60341·PAYLOAD·🇺🇸 United States

Lancé Aug 2, 2024 depuis Cape Canaveral Space Force Station

Loading…

Prochains Passages (prochaines 24 heures)

TLE

FraisSource: CelesTrak SupGP

Époque: Sep 14, 2026, 15:08 UTC

1 60341C 24136N   26257.63104167 -.00006171  00000+0 -18241-3 0  2572
2 60341  53.1568 276.9813 0001141  73.6175  63.2714 15.34378811    11

Suivez STARLINK-32185 en temps réel avec AllMySat

Download on the App Store